TimeEST,TemperatureF,Dew PointF,Humidity,Sea Level PressureIn,VisibilityMPH,Wind Direction,Wind SpeedMPH,Gust SpeedMPH,PrecipitationIn,Events,Conditions,WindDirDegrees,DateUTC
12:22 AM,14.0,10.4,86,29.72,10.0,Calm,Calm,-,N/A,,Mostly Cloudy,0,2013-01-22 05:22:00
12:52 AM,12.9,10.9,92,29.78,10.0,Calm,Calm,-,N/A,,Mostly Cloudy,0,2013-01-22 05:52:00
1:52 AM,12.9,10.0,88,29.78,4.0,Calm,Calm,-,0.00,Snow,Light Snow,0,2013-01-22 06:52:00
2:11 AM,12.2,8.6,85,29.70,3.0,Calm,Calm,-,0.00,Snow,Light Snow,0,2013-01-22 07:11:00
2:26 AM,12.2,8.6,85,29.70,2.5,Calm,Calm,-,0.00,Snow,Light Snow,0,2013-01-22 07:26:00
2:33 AM,10.4,8.6,92,29.70,3.0,Calm,Calm,-,0.00,Snow,Light Snow,0,2013-01-22 07:33:00
2:41 AM,12.2,8.6,85,29.70,2.5,Calm,Calm,-,0.00,Snow,Light Snow,0,2013-01-22 07:41:00
2:52 AM,12.9,9.0,84,29.78,1.8,Calm,Calm,-,0.00,Snow,Light Snow,0,2013-01-22 07:52:00
3:00 AM,12.2,10.4,92,29.70,2.5,Calm,Calm,-,0.00,Snow,Light Snow,0,2013-01-22 08:00:00
3:07 AM,12.2,10.4,92,29.70,6.0,Calm,Calm,-,0.00,Snow,Light Snow,0,2013-01-22 08:07:00
3:32 AM,12.2,10.4,92,29.70,1.8,South,3.5,-,0.00,Snow,Light Snow,190,2013-01-22 08:32:00
3:49 AM,14.0,12.2,93,29.70,2.0,Calm,Calm,-,0.00,Snow,Light Snow,0,2013-01-22 08:49:00
3:52 AM,14.0,10.9,88,29.77,1.8,Calm,Calm,-,0.00,Snow,Light Snow,0,2013-01-22 08:52:00
3:56 AM,14.0,10.4,86,29.70,2.0,Calm,Calm,-,0.00,Snow,Light Snow,0,2013-01-22 08:56:00
4:06 AM,14.0,10.4,86,29.70,5.0,Calm,Calm,-,0.00,,Overcast,0,2013-01-22 09:06:00
4:13 AM,14.0,10.4,86,29.70,8.0,South,3.5,-,0.00,,Overcast,190,2013-01-22 09:13:00
4:37 AM,14.0,10.4,86,29.70,2.0,South,3.5,-,0.00,Snow,Light Snow,180,2013-01-22 09:37:00
5:08 AM,15.8,10.4,79,29.71,10.0,SW,4.6,-,0.00,,Scattered Clouds,230,2013-01-22 10:08:00
5:52 AM,14.0,8.1,77,29.79,10.0,Calm,Calm,-,0.00,,Clear,0,2013-01-22 10:52:00
6:52 AM,12.9,7.0,77,29.82,10.0,Variable,3.5,-,N/A,,Clear,0,2013-01-22 11:52:00
7:27 AM,12.2,8.6,85,29.76,10.0,Calm,Calm,-,N/A,,Mostly Cloudy,0,2013-01-22 12:27:00
7:52 AM,14.0,8.1,77,29.84,10.0,Calm,Calm,-,N/A,,Scattered Clouds,0,2013-01-22 12:52:00
8:36 AM,15.8,8.6,73,29.78,10.0,Calm,Calm,-,N/A,,Mostly Cloudy,0,2013-01-22 13:36:00
8:52 AM,15.1,6.1,68,29.86,10.0,Variable,5.8,-,N/A,,Mostly Cloudy,0,2013-01-22 13:52:00
9:52 AM,14.0,3.9,64,29.88,10.0,Calm,Calm,-,N/A,,Overcast,0,2013-01-22 14:52:00
10:44 AM,15.8,1.4,53,29.80,10.0,West,8.1,23.0,N/A,,Scattered Clouds,270,2013-01-22 15:44:00
10:52 AM,15.1,1.9,56,29.88,10.0,West,10.4,18.4,N/A,,Scattered Clouds,270,2013-01-22 15:52:00
11:52 AM,15.1,1.0,54,29.88,10.0,WSW,9.2,23.0,N/A,,Mostly Cloudy,250,2013-01-22 16:52:00
12:52 PM,15.1,-2.0,47,29.87,10.0,WNW,11.5,18.4,N/A,,Overcast,300,2013-01-22 17:52:00
1:52 PM,16.0,-2.9,43,29.88,10.0,Variable,4.6,16.1,N/A,,Overcast,0,2013-01-22 18:52:00
2:52 PM,15.1,-4.0,43,29.91,10.0,West,12.7,17.3,N/A,,Overcast,280,2013-01-22 19:52:00
3:52 PM,14.0,-5.1,43,29.94,10.0,WNW,8.1,-,0.00,,Scattered Clouds,290,2013-01-22 20:52:00
4:52 PM,12.0,-5.1,46,29.96,10.0,Variable,4.6,-,N/A,,Clear,0,2013-01-22 21:52:00
5:52 PM,10.9,-5.1,49,29.99,10.0,Calm,Calm,-,N/A,,Clear,0,2013-01-22 22:52:00
6:52 PM,10.0,-4.0,53,30.02,10.0,West,4.6,-,N/A,,Overcast,270,2013-01-22 23:52:00
7:52 PM,10.0,-0.9,61,30.03,10.0,WNW,6.9,-,0.00,,Overcast,290,2013-01-23 00:52:00
8:52 PM,8.1,-0.0,70,30.04,10.0,West,3.5,-,N/A,,Clear,270,2013-01-23 01:52:00
9:52 PM,8.1,-0.9,67,30.05,10.0,West,3.5,-,N/A,,Partly Cloudy,260,2013-01-23 02:52:00
10:52 PM,7.0,-8.0,51,30.06,10.0,Calm,Calm,-,N/A,,Clear,0,2013-01-23 03:52:00
11:52 PM,1.0,-8.0,66,30.06,10.0,Calm,Calm,-,N/A,,Clear,0,2013-01-23 04:52:00